Butler, GA

11:59 AM EST on December 07, 2019 (GMT -0500)
Butler

Weather History for K6A1 - October, 2019

Change the Weather History Date:

Saturday, October 19, 2019

  Actual Average (WUND) Record (WUND)
Temperature  
Mean Temperature 58 °F -  
Max Temperature 62 °F - - (-1)
Min Temperature 55 °F - - (-1)
Degree Days  
Heating Degree Days 6    
Growing Degree Days 8 (Base 50)    
Moisture  
Dew Point 57 °F    
Average Humidity 94    
Maximum Humidity 99    
Minimum Humidity 65    
Precipitation  
Precipitation 0.00 in - - ()
Sea Level Pressure  
Sea Level Pressure 29.81 in    
Wind  
Wind Speed 8 mph ()    
Max Wind Speed 16 mph    
Max Gust Speed 24 mph    
Visibility 7.0 miles    
Events Rain , Thunderstorm    
Averages and records for this station are not official NWS values.
T = Trace of Precipitation, MM = Missing Value Source: Averaged Metar Reports

Daily Weather History Graph

Daily Weather History Graph

Search for Another Location

Airport or City:

Astronomy

Oct. 19, 2019 Rise Set
Actual Time 7:43 AM EDT 6:59 PM EDT
Civil Twilight 7:18 AM EDT 7:24 PM EDT
Nautical Twilight 6:50 AM EDT 7:53 PM EDT
Astronomical Twilight 6:21 AM EDT 8:21 PM EDT
Moon 11:21 PM EDT (10/19) 1:01 PM EDT (10/19)
Length of Visible Light 12h 05m
Length of Day
11h 15m
Waning Gibbous, 70% of the Moon is Illuminated
Oct 19
Waning Gibbous
Oct 21
Last Quarter
Oct 27
New
Nov 4
First Quarter
Nov 12
Full

Hourly Weather History & Observations

Time (EDT) Temp. Dew Point Humidity Pressure Visibility Wind Dir Wind Speed Gust Speed Precip Events Conditions
12:15 AM 61.2 °F 49.1 °F 65% 29.95 in 10.0 mi East 4.6 mph - N/A   Unknown
12:35 AM 61.7 °F 50.2 °F 66% 29.95 in 10.0 mi East 4.6 mph - N/A   Unknown
12:55 AM 62.1 °F 51.1 °F 67% 29.95 in 10.0 mi East 5.8 mph - N/A   Unknown
1:15 AM 62.1 °F 51.8 °F 69% 29.95 in 10.0 mi East 6.9 mph - N/A   Unknown
1:35 AM 62.1 °F 52.2 °F 70% 29.94 in 10.0 mi East 6.9 mph - N/A   Unknown
1:55 AM 61.9 °F 52.7 °F 72% 29.93 in 10.0 mi ENE 5.8 mph - N/A   Unknown
2:15 AM 62.2 °F 53.2 °F 72% 29.93 in 10.0 mi East 8.1 mph - N/A   Unknown
2:35 AM 62.4 °F 53.8 °F 73% 29.93 in 10.0 mi East 8.1 mph - N/A   Unknown
2:55 AM 61.9 °F 54.5 °F 77% 29.92 in 10.0 mi East 8.1 mph - N/A Rain Light Rain
3:15 AM 60.8 °F 54.7 °F 80% 29.92 in 10.0 mi ENE 6.9 mph - N/A Rain Light Rain
3:35 AM 59.9 °F 54.5 °F 82% 29.91 in 10.0 mi ENE 5.8 mph - N/A   Light Drizzle
3:55 AM 59.2 °F 54.5 °F 84% 29.91 in 10.0 mi ENE 5.8 mph - N/A Rain Light Rain
4:15 AM 58.5 °F 54.9 °F 88% 29.90 in 10.0 mi ENE 5.8 mph - N/A Rain Rain
4:35 AM 58.1 °F 55.4 °F 91% 29.90 in 10.0 mi ENE 5.8 mph - N/A Rain Light Rain
4:55 AM 57.4 °F 55.4 °F 93% 29.90 in 10.0 mi ENE 6.9 mph - N/A Rain Light Rain
5:15 AM 57.2 °F 55.8 °F 95% 29.90 in 10.0 mi ENE 6.9 mph - N/A Rain Light Rain
5:35 AM 57.0 °F 55.9 °F 96% 29.89 in 7.0 mi ENE 10.4 mph - N/A Rain Rain
5:55 AM 56.8 °F 55.9 °F 97% 29.89 in 10.0 mi ENE 9.2 mph - N/A Rain Rain
6:15 AM 56.7 °F 55.9 °F 97% 29.90 in 10.0 mi East 8.1 mph - N/A   Drizzle
6:35 AM 56.7 °F 56.1 °F 98% 29.90 in 5.0 mi East 6.9 mph - N/A   Drizzle
6:55 AM 56.7 °F 56.3 °F 99% 29.90 in 7.0 mi ENE 8.1 mph - N/A Rain Light Rain
7:15 AM 56.5 °F 55.9 °F 98% 29.90 in 5.0 mi ENE 10.4 mph - N/A   Drizzle
7:35 AM 56.1 °F 55.4 °F 97% 29.90 in 4.0 mi ENE 10.4 mph 17.3 mph N/A Rain Rain
7:55 AM 55.9 °F 55.4 °F 98% 29.90 in 3.0 mi ENE 9.2 mph - N/A Rain Rain
8:15 AM 55.8 °F 55.4 °F 99% 29.89 in 5.0 mi ENE 10.4 mph - N/A Rain Light Rain
8:35 AM 56.1 °F 55.6 °F 98% 29.89 in 7.0 mi NE 9.2 mph - N/A Rain Rain
8:55 AM 56.3 °F 55.9 °F 99% 29.89 in 5.0 mi ENE 10.4 mph - N/A Rain Light Rain
9:15 AM 56.5 °F 56.1 °F 99% 29.89 in 3.0 mi ENE 8.1 mph - N/A Rain Rain
9:35 AM 56.7 °F 56.3 °F 99% 29.89 in 3.0 mi ENE 9.2 mph - N/A Rain Rain
9:55 AM 56.8 °F 56.5 °F 99% 29.89 in 5.0 mi East 9.2 mph - N/A Rain Light Rain
10:35 AM 57.2 °F 56.8 °F 99% 29.87 in 10.0 mi ENE 10.4 mph - N/A Rain Light Rain
10:55 AM 57.6 °F 57.2 °F 99% 29.87 in 5.0 mi ENE 10.4 mph 20.7 mph N/A Rain Light Rain
11:15 AM 57.7 °F 57.4 °F 99% 29.87 in 5.0 mi ENE 13.8 mph 18.4 mph N/A Rain Light Rain
11:35 AM 58.1 °F 57.6 °F 98% 29.87 in 7.0 mi ENE 10.4 mph - N/A Rain Light Rain
11:55 AM 58.1 °F 57.6 °F 98% 29.85 in 5.0 mi East 13.8 mph 18.4 mph N/A Rain Light Rain
12:15 PM 58.1 °F 57.7 °F 99% 29.82 in 4.0 mi East 13.8 mph 24.2 mph N/A Rain Light Rain
12:35 PM 58.1 °F 57.9 °F 99% 29.83 in 7.0 mi ENE 10.4 mph - N/A Rain Rain
12:55 PM 58.1 °F 57.7 °F 99% 29.82 in 7.0 mi ENE 12.7 mph - N/A Rain Light Rain
1:15 PM 58.3 °F 58.1 °F 99% 29.81 in 2.5 mi ENE 13.8 mph 17.3 mph N/A Rain Light Rain
1:35 PM 58.6 °F 58.3 °F 99% 29.79 in 3.0 mi ENE 12.7 mph 17.3 mph N/A Rain Light Rain
1:55 PM 58.6 °F 58.3 °F 99% 29.78 in 4.0 mi ENE 11.5 mph - N/A Rain Light Rain
2:15 PM 59.0 °F 58.5 °F 98% 29.76 in 3.0 mi NE 13.8 mph - N/A Rain Light Rain
2:35 PM 59.0 °F 58.6 °F 99% 29.76 in 4.0 mi ENE 9.2 mph 18.4 mph N/A Rain Rain
2:55 PM 59.2 °F 59.0 °F 99% 29.75 in 3.0 mi NE 12.7 mph 17.3 mph N/A Rain , Thunderstorm Rain
3:15 PM 59.4 °F 59.0 °F 99% 29.72 in 7.0 mi ENE 12.7 mph 17.3 mph N/A Rain Rain
3:35 PM 59.5 °F 59.2 °F 99% 29.72 in 7.0 mi ENE 11.5 mph 18.4 mph N/A Rain Light Rain
3:55 PM 59.9 °F 59.5 °F 99% 29.70 in 7.0 mi ENE 11.5 mph 20.7 mph N/A Rain Rain
4:15 PM 59.9 °F 59.4 °F 98% 29.69 in 5.0 mi ENE 13.8 mph 18.4 mph N/A Rain Rain
4:35 PM 59.9 °F 59.5 °F 99% 29.68 in 2.0 mi ENE 15.0 mph 19.6 mph N/A Rain Heavy Rain
4:55 PM 60.1 °F 59.9 °F 99% 29.66 in 3.0 mi ENE 16.1 mph 23.0 mph N/A Rain , Thunderstorm Rain
5:15 PM 60.3 °F 59.9 °F 99% 29.67 in 10.0 mi ENE 12.7 mph 19.6 mph N/A Rain Rain
5:55 PM 60.8 °F 60.1 °F 97% 29.65 in 5.0 mi NE 12.7 mph 18.4 mph N/A Rain Light Rain
6:15 PM 60.8 °F 60.3 °F 98% 29.65 in 10.0 mi NE 11.5 mph 19.6 mph N/A Rain Light Rain
6:35 PM 60.8 °F 60.1 °F 97% 29.66 in 7.0 mi NE 10.4 mph - N/A Rain , Thunderstorm Light Thunderstorms and Rain
6:55 PM 60.3 °F 59.7 °F 98% 29.65 in 5.0 mi NE 16.1 mph 19.6 mph N/A Rain Light Rain
7:15 PM 59.4 °F 59.0 °F 99% 29.67 in 5.0 mi NNE 11.5 mph 18.4 mph N/A Rain Light Rain
7:35 PM 59.0 °F 58.3 °F 97% 29.66 in 7.0 mi NE 13.8 mph - N/A Rain Rain
7:55 PM 58.6 °F 58.1 °F 98% 29.65 in 10.0 mi NNE 15.0 mph 19.6 mph N/A   Light Drizzle
8:15 PM 58.6 °F 58.1 °F 98% 29.66 in 10.0 mi NNE 12.7 mph - N/A Thunderstorm Unknown
8:35 PM 58.1 °F 57.6 °F 98% 29.67 in 10.0 mi NNE 10.4 mph - N/A Thunderstorm Unknown
8:55 PM 57.6 °F 57.2 °F 99% 29.66 in 10.0 mi NNE 10.4 mph 17.3 mph N/A   Unknown
9:15 PM 57.2 °F 56.7 °F 98% 29.66 in 10.0 mi North 13.8 mph 17.3 mph N/A   Unknown
9:35 PM 57.4 °F 56.8 °F 98% 29.67 in 10.0 mi North 13.8 mph - N/A   Drizzle
9:55 PM 57.2 °F 56.7 °F 98% 29.68 in 7.0 mi North 13.8 mph - N/A Thunderstorm Drizzle
10:35 PM 57.6 °F 57.2 °F 99% 29.69 in 5.0 mi North 15.0 mph - N/A   Drizzle
10:55 PM 58.1 °F 57.6 °F 98% 29.69 in 5.0 mi North 11.5 mph - N/A   Drizzle
11:15 PM 58.3 °F 57.7 °F 98% 29.69 in 4.0 mi North 10.4 mph 18.4 mph N/A   Drizzle
11:35 PM 58.6 °F 58.1 °F 98% 29.70 in 5.0 mi North 12.7 mph 18.4 mph N/A   Light Drizzle
11:55 PM 59.0 °F 58.5 °F 98% 29.70 in 7.0 mi North 10.4 mph - N/A   Unknown